Simultaneous Nadir Overpasses (SNOs) Predictions

Prediction of SNOs between GOES-16 and AQUA Satellite Orbit:

Table of predicted SNOs for the next 14.0 days since TLE Epoch: 5/29/2021
Index Date Time (GOES-16) GOES-16 Lat,Lon AQUA Lat,Lon Distance(km) Time Diff (sec)
1 05/29/2021 18:22:59 0.01, -75.20 0.76, -71.66 402.57 80
2 05/30/2021 06:44:14 -0.01, -75.20 0.32, -76.82 184.22 80
3 06/01/2021 06:29:23 -0.00, -75.22 -0.31, -73.87 153.87 80
4 06/01/2021 18:50:47 0.00, -75.23 -0.81, -79.06 435.36 80
5 06/03/2021 06:17:12 0.00, -75.24 -0.94, -70.91 492.86 80
6 06/03/2021 18:38:36 0.00, -75.26 -0.17, -76.10 96.09 80
7 06/05/2021 18:29:05 0.00, -75.29 0.46, -73.15 243.82 80
8 06/06/2021 06:50:21 -0.01, -75.30 0.62, -78.31 342.12 80
9 06/08/2021 06:38:10 -0.01, -75.34 -0.02, -75.36 2.22 80
10 06/10/2021 06:25:59 -0.01, -75.38 -0.66, -72.40 338.89 80
11 06/10/2021 18:44:43 0.02, -75.39 -0.43, -77.60 249.95 80
